Lapse_Rate
5.5 6.1 6.5 6.6 6.6 6.3 6.4 5.9 5.5 5.3 5.3 5.2 5.2 5.0 5.1 5.0 4.9 5.2 5.2 5.4 5.5 5.8 6.0 6.2 6.2 6.3 6.1 6.1 6.0 5.9 5.6 5.8 6.1 6.3 6.1 6.1 6.2 6.8 7.1 7.2 7.4 6.6 6.3
5.9 6.5 6.3 6.7 6.5 6.4 6.2 5.7 5.4 5.5 5.4 5.2 5.1 5.1 5.3 5.0 5.3 5.4 5.3 5.6 5.8 6.1 6.2 6.4 6.3 6.3 6.5 6.3 6.1 6.2 6.0 6.2 6.6 6.5 6.7 6.9 6.6 7.0 7.3 7.8 7.2 6.3 6.2
6.3 6.2 6.3 6.5 6.4 6.1 5.9 5.6 5.6 5.7 5.4 5.3 5.4 5.3 5.0 5.1 5.3 5.3 5.4 5.5 5.9 6.1 6.2 6.4 6.3 6.3 6.3 6.3 6.2 6.3 6.4 6.6 7.0 7.1 6.7 6.7 6.4 6.7 7.3 7.1 6.5 6.2 6.0
6.2 6.2 6.3 6.0 6.1 6.0 5.6 5.5 5.7 5.9 5.5 5.3 5.4 5.2 5.1 5.2 5.3 5.3 5.3 5.6 5.8 6.0 6.2 6.2 6.2 6.2 6.2 6.1 6.0 6.2 6.6 6.9 7.0 7.1 7.6 7.2 7.1 6.3 6.4 6.4 6.4 6.5 6.0
6.7 6.3 6.1 6.0 6.1 6.0 5.7 5.8 5.7 5.8 5.6 5.5 5.3 5.3 5.5 5.3 5.2 5.1 5.3 5.5 5.7 6.1 6.4 6.3 6.2 5.9 5.9 5.9 5.9 5.9 6.2 6.6 7.3 7.2 7.6 6.8 6.3 6.1 6.4 6.0 6.3 6.2 6.1
6.4 5.7 5.8 5.9 6.2 6.2 6.0 5.9 5.7 5.7 5.7 5.7 5.6 5.6 5.6 5.4 5.4 5.3 5.5 5.7 6.1 6.6 6.6 6.4 5.9 5.6 5.8 5.6 5.7 5.7 5.8 6.1 5.8 6.8 7.0 6.6 6.0 6.0 6.3 6.6 6.7 6.0 6.1
6.0 5.8 5.8 6.0 6.1 6.1 6.1 5.9 5.8 5.9 5.9 5.9 5.7 5.8 5.8 5.5 5.4 5.3 5.7 6.0 6.2 6.3 6.4 6.3 6.1 5.5 5.6 5.7 5.6 5.7 6.3 7.2 7.6 5.0 7.3 6.3 5.5 6.0 6.3 6.4 6.5 6.3 6.0
5.9 6.0 6.0 6.0 6.0 6.0 6.1 5.9 5.7 5.8 5.8 5.8 5.8 5.7 5.6 5.4 5.5 5.5 5.9 6.2 6.5 6.5 6.3 6.0 5.9 5.6 5.4 5.5 5.6 5.7 6.4 5.7 2.4 2.6 3.6 7.2 5.6 5.9 6.0 6.0 6.3 6.5 6.1
6.4 5.9 5.5 5.8 5.9 5.9 5.9 5.9 5.8 5.7 5.7 5.7 5.6 5.5 5.4 5.7 5.6 5.6 6.0 6.1 6.1 6.1 6.1 5.9 5.7 5.7 5.5 5.5 5.7 6.0 6.3 4.7 3.9 3.1 4.8 4.6 6.3 5.8 5.7 6.5 6.1 6.8 6.2
6.7 5.6 5.6 5.3 5.3 5.2 5.6 6.0 5.9 5.7 5.6 5.6 5.6 5.4 5.5 6.1 6.3 6.3 6.5 6.5 6.2 6.1 5.8 6.1 6.2 6.0 5.8 5.5 5.6 5.9 6.2 4.9 4.7 3.0 2.9 3.4 6.8 6.3 5.9 5.9 6.4 6.6 6.3
6.8 6.0 5.7 5.4 5.1 5.0 5.2 5.7 5.8 5.7 5.6 5.5 5.5 5.4 5.8 5.5 5.5 7.1 7.0 6.7 6.8 6.2 5.9 6.1 6.4 6.3 6.1 6.2 6.7 6.9 7.0 5.9 3.0 3.2 3.7 5.8 6.6 6.8 6.3 6.3 6.1 6.2 6.4
7.3 6.8 6.2 5.8 5.4 5.1 5.8 5.2 5.1 5.3 5.4 5.2 5.1 5.5 5.8 6.0 5.1 6.6 6.2 5.1 6.0 6.1 6.6 6.3 6.4 6.6 6.5 6.2 6.4 7.3 6.7 7.6 5.0 3.7 5.3 6.6 7.0 6.7 5.6 5.8 5.7 5.4 6.0
7.1 7.7 7.3 6.3 5.9 5.4 5.8 4.6 4.5 4.8 4.7 4.9 5.3 6.1 6.1 5.3 5.7 3.7 3.5 4.2 4.4 6.1 5.0 6.0 6.4 6.2 6.9 7.4 6.6 7.8 7.3 7.3 6.5 6.0 6.0 6.6 7.1 6.7 5.7 5.2 4.2 4.6 5.2
7.0 7.4 7.1 6.2 6.0 6.1 5.7 5.0 4.9 4.9 4.8 4.8 5.8 6.3 6.4 3.9 3.2 3.0 2.7 3.2 3.5 5.1 4.6 5.9 5.2 6.2 7.4 7.5 7.4 7.5 7.5 7.7 6.9 6.1 6.2 6.9 6.6 6.8 5.9 5.0 4.4 4.1 5.9
7.1 7.4 7.0 5.7 4.9 6.1 4.9 5.2 5.6 5.6 5.5 5.7 6.0 6.6 6.6 4.1 2.4 3.4 4.0 4.0 3.5 4.6 5.3 4.7 5.8 6.3 5.6 7.0 7.2 7.5 7.7 8.1 8.3 6.8 6.5 7.2 6.9 6.6 6.5 5.7 5.3 5.3 5.4
7.0 6.2 6.0 5.2 4.4 5.2 4.7 4.8 4.9 6.8 6.8 7.1 6.9 6.4 6.3 5.3 3.5 4.2 4.5 5.9 6.2 6.4 6.4 6.1 5.0 5.0 5.2 5.7 5.7 7.2 7.8 7.6 7.3 7.9 6.5 6.7 7.0 7.0 7.0 6.5 5.5 5.5 5.7
6.5 5.6 5.4 5.0 4.9 4.5 4.9 5.3 6.0 5.9 6.8 6.1 6.1 6.3 6.5 6.2 5.9 5.2 4.7 4.4 5.4 6.5 6.4 5.9 5.5 5.8 4.7 5.2 5.3 6.3 6.9 7.1 7.3 7.8 7.8 7.1 6.9 6.9 7.3 6.7 6.4 5.6 5.5
6.4 5.4 5.2 6.8 5.4 4.6 4.4 5.0 5.2 5.9 5.7 5.7 5.8 6.3 6.8 6.5 6.0 5.6 4.6 4.3 4.7 6.2 6.1 4.5 3.9 4.9 4.7 4.2 4.4 5.3 5.4 6.8 7.1 7.9 7.8 7.2 6.7 6.7 6.6 7.1 6.8 6.7 6.2
5.4 5.1 5.7 6.2 5.6 4.8 4.1 4.3 5.0 5.8 5.0 5.6 5.9 5.5 5.9 6.8 6.7 6.0 5.0 5.1 6.2 4.8 4.6 4.3 4.1 5.5 4.8 3.9 4.9 4.8 5.0 5.1 6.3 7.8 7.3 7.7 7.7 6.9 6.1 7.2 7.4 7.3 7.1
4.9 5.2 5.8 5.1 5.1 4.7 4.1 3.6 4.1 4.3 4.4 5.8 4.9 5.0 6.1 5.8 6.2 5.3 5.2 4.9 5.7 4.6 3.9 4.2 4.8 4.6 4.5 4.5 6.1 5.7 4.9 5.3 5.3 5.0 6.0 7.5 7.7 7.2 7.0 7.0 6.3 6.7 6.6
4.9 5.0 4.9 4.6 4.4 5.1 5.0 4.7 4.4 4.3 4.5 4.6 5.0 5.3 5.1 5.5 5.3 5.2 4.7 4.9 5.1 4.9 3.8 5.6 4.4 4.5 4.5 4.4 4.4 4.4 4.9 6.3 6.4 4.8 5.1 5.2 5.7 6.5 6.7 6.5 6.4 5.8 6.4
5.2 5.0 4.5 5.0 3.9 5.5 5.1 5.2 4.2 4.1 4.8 4.5 4.4 4.4 5.2 5.0 5.6 4.7 4.4 4.2 4.5 4.7 4.5 4.4 4.6 3.2 3.9 4.2 4.2 3.1 4.4 5.6 5.4 5.8 4.4 4.8 4.1 6.2 6.4 6.1 6.4 6.0 5.6
5.2 4.3 4.7 4.8 4.8 4.8 5.2 5.2 4.5 4.2 4.3 4.6 4.5 4.3 5.5 5.8 5.4 5.0 4.8 4.3 4.5 4.3 4.0 4.2 4.0 3.7 4.2 4.1 4.9 3.7 4.2 4.3 4.9 5.4 5.1 4.4 4.2 3.9 4.5 5.5 6.4 7.0 6.1
5.0 4.7 4.4 4.4 4.8 4.8 4.6 5.5 4.8 4.0 3.9 4.4 4.5 5.7 5.0 4.7 4.6 5.0 5.0 4.7 4.6 3.9 3.6 3.7 3.5 3.0 3.5 4.3 4.4 4.7 3.8 4.0 4.2 4.7 4.5 5.4 3.8 5.0 4.2 4.8 5.3 6.6 6.5
5.7 4.5 3.8 4.2 4.8 5.1 5.4 5.2 5.0 4.6 5.2 4.6 4.2 4.0 3.7 3.4 5.0 5.4 5.3 4.8 3.8 3.6 3.3 2.7 3.0 2.7 3.3 3.6 3.9 4.3 4.3 3.5 3.3 3.4 4.2 4.8 5.3 4.3 3.7 4.1 4.9 5.7 6.3
5.5 5.0 4.1 3.8 4.1 4.6 4.9 4.6 4.8 4.9 4.6 5.1 3.6 3.2 4.5 4.8 4.1 3.8 5.2 4.2 3.6 3.1 2.2 2.5 2.8 2.9 2.9 3.3 3.5 3.6 3.7 4.1 3.9 3.7 3.3 3.7 4.2 5.0 5.0 4.1 4.2 5.7 5.9
Wind_Speed
3 6 16 20 22 22 22 21 21 21 20 20 19 19 19 19 19 17 17 18 17 15 15 15 13 13 12 10 9 8 10 11 11 12 11 11 10 9 9 10 14 14 14
8 14 18 20 21 22 22 21 21 20 19 20 19 19 19 18 17 15 16 16 16 14 14 13 12 12 10 8 6 5 7 8 9 9 8 10 10 9 7 10 16 15 14
11 14 17 18 21 22 21 21 20 19 20 18 18 18 18 17 15 15 15 15 14 13 13 11 11 11 9 7 4 2 5 6 4 5 6 10 11 12 12 18 16 16 15
17 15 17 18 20 21 20 20 19 18 19 17 17 18 16 14 13 14 15 13 12 12 10 9 9 9 8 7 4 4 4 1 3 3 5 10 13 12 14 16 15 15 16
15 18 19 19 20 19 19 18 18 17 17 15 14 16 14 13 13 14 13 11 10 9 8 7 7 7 7 5 4 4 4 5 3 4 8 12 15 12 13 14 15 16 15
16 20 21 21 21 20 18 17 17 16 15 13 13 13 11 11 12 11 10 9 8 7 6 6 6 5 4 3 3 3 5 8 7 10 11 13 15 16 13 13 13 15 14
14 19 20 21 21 20 18 17 16 15 14 12 11 11 10 10 10 9 8 7 5 5 4 5 5 4 3 2 3 4 6 3 13 16 7 14 15 15 14 12 11 11 13
15 17 19 20 20 20 19 17 15 15 14 12 10 10 9 9 8 7 5 5 4 4 4 4 4 3 1 2 2 4 6 21 20 20 15 7 14 14 13 11 10 10 10
19 16 16 17 19 20 18 17 15 14 13 12 11 10 8 8 8 6 4 4 4 4 3 1 1 1 1 3 5 4 2 24 18 4 8 4 12 13 13 11 11 9 10
15 14 14 15 15 16 16 16 15 14 13 13 11 9 6 4 6 8 7 4 2 2 2 2 2 1 4 6 7 9 10 20 11 6 11 9 13 13 13 11 10 7 9
13 14 15 14 14 15 15 15 14 14 13 12 11 9 9 8 7 8 5 5 1 2 3 2 4 5 6 8 9 7 8 3 14 9 10 11 13 15 11 9 8 8 8
15 16 14 15 15 17 16 15 14 13 13 13 14 14 12 9 6 7 5 9 3 5 4 3 6 10 7 9 9 10 4 15 16 11 12 13 12 15 16 12 11 11 10
15 12 14 14 19 17 13 15 12 14 15 16 18 16 13 9 8 8 6 7 11 4 1 1 6 11 6 4 7 7 12 14 11 12 13 13 11 13 16 11 12 13 16
14 15 14 16 12 13 15 13 13 11 13 13 15 18 9 12 9 9 7 6 11 6 8 4 9 11 1 4 4 1 5 6 9 12 12 13 12 14 19 17 15 14 13
14 18 14 11 10 12 10 12 13 11 12 13 15 17 8 10 7 8 7 12 13 9 6 6 4 5 5 7 5 6 1 2 5 10 12 11 10 13 18 21 20 13 14
18 18 16 11 9 11 6 6 4 11 12 12 13 15 13 14 11 8 6 1 1 9 7 5 4 2 4 5 5 5 3 4 7 5 10 12 9 10 13 20 23 20 16
18 19 18 14 11 8 7 6 3 3 6 7 10 18 15 15 9 8 3 1 1 1 5 4 4 3 4 6 2 0 4 8 4 3 1 3 11 9 10 13 17 19 17
18 20 17 15 15 10 8 5 3 2 2 5 10 15 14 15 11 7 3 3 6 2 4 2 2 0 3 3 3 3 3 2 1 3 1 7 9 9 10 11 14 16 14
14 19 18 17 16 12 7 6 5 6 3 6 7 12 12 12 11 6 3 6 6 4 3 2 1 1 1 3 4 4 2 4 3 7 6 7 8 3 9 10 8 8 8
14 16 17 11 15 12 8 6 4 2 3 8 8 11 10 11 10 9 5 7 8 3 3 2 2 1 1 2 3 3 1 2 4 3 2 6 12 14 7 6 2 4 6
13 15 14 11 13 11 8 7 4 4 3 4 6 13 14 14 14 11 5 4 5 4 5 3 2 1 2 1 2 3 2 1 3 4 7 6 7 12 17 15 12 11 9
16 16 14 13 11 12 9 7 4 4 4 3 4 8 15 15 15 10 6 3 4 3 4 4 3 1 2 1 2 2 2 3 3 3 4 4 6 7 8 11 14 10 9
18 17 16 16 12 11 12 7 3 3 0 2 3 3 7 16 13 12 11 5 4 4 5 5 4 4 1 2 1 3 2 2 0 1 3 4 5 3 2 7 10 9 13
18 18 17 16 15 11 10 10 7 5 4 4 4 7 7 12 12 14 12 10 5 4 6 4 4 3 3 0 2 1 2 3 2 1 2 2 4 4 3 2 7 8 10
21 20 18 19 17 14 13 10 8 6 7 6 4 7 7 6 12 13 13 9 6 5 5 7 5 4 3 3 2 2 1 1 1 3 2 1 1 1 3 3 7 8 10
19 20 19 20 18 16 15 11 12 11 10 9 4 5 8 7 6 7 11 10 9 6 7 6 5 5 4 4 2 1 2 2 2 2 3 1 2 2 5 4 5 7 9
Wind_Direction
200 180 136 128 131 126 122 117 111 110 108 104 102 100 97 96 95 97 96 97 97 95 89 87 85 82 86 92 96 100 101 95 87 83 87 93 95 100 114 129 115 104 100
154 151 143 134 133 126 124 120 113 112 108 105 105 105 102 99 102 103 101 99 96 93 87 84 84 84 87 90 92 100 96 97 100 97 108 111 110 111 101 153 125 112 107
135 142 144 136 132 127 126 119 116 114 109 110 110 107 107 109 111 109 103 97 97 92 87 85 81 82 79 80 71 48 86 105 127 146 146 116 116 110 104 117 122 117 112
141 144 144 136 134 131 129 124 125 120 114 107 105 106 108 114 115 107 100 99 96 94 91 85 80 77 78 69 55 352 21 55 156 208 215 155 118 114 115 117 119 118 114
139 141 145 141 139 136 135 136 129 124 119 118 117 113 116 120 116 106 103 102 100 98 94 82 72 67 66 65 44 13 343 327 6 37 149 124 124 119 120 128 124 128 121
125 133 143 143 145 145 141 140 136 129 128 128 125 120 123 122 112 104 100 98 98 91 84 76 68 58 65 55 33 5 335 29 350 23 137 128 121 122 130 124 125 120 123
128 138 140 144 150 147 146 146 143 141 140 140 133 129 127 122 115 112 100 101 109 103 85 74 70 62 54 43 358 347 332 17 34 95 185 126 135 126 121 118 125 125 127
131 139 143 146 147 149 153 152 150 151 153 147 143 143 136 127 125 124 121 117 90 60 63 76 83 73 340 310 323 316 347 65 62 42 16 125 135 127 123 126 130 130 130
129 139 141 148 151 153 154 154 155 154 160 156 162 159 154 144 148 161 169 153 114 84 51 83 113 103 287 289 288 294 325 89 81 120 49 271 142 132 126 130 137 141 136
137 141 151 153 149 153 155 153 156 161 164 168 167 173 169 178 190 187 202 203 137 99 8 347 337 333 300 290 294 304 308 129 139 180 161 210 151 128 133 142 149 161 147
147 153 154 156 159 160 156 163 162 165 163 168 174 183 195 203 244 223 195 245 286 258 277 21 320 280 267 285 293 298 300 161 155 170 197 168 149 133 129 142 144 147 169
153 158 162 163 168 165 164 169 171 171 172 180 189 191 201 214 59 36 65 5 304 225 278 345 320 290 279 269 292 340 294 15 157 175 157 160 148 143 143 158 157 162 171
163 165 162 165 172 171 165 174 179 185 193 196 203 191 204 179 147 88 16 306 271 227 131 111 284 267 268 45 55 33 30 36 115 146 149 149 150 148 158 162 157 179 178
170 172 164 168 168 172 162 180 183 189 199 196 200 190 191 143 145 142 213 261 268 230 238 226 262 254 117 43 112 76 60 15 99 151 162 165 170 161 167 170 178 202 188
164 163 164 166 149 170 175 188 187 194 200 194 186 188 185 132 140 164 194 226 237 213 218 212 214 2 12 328 355 140 88 292 120 132 178 184 177 166 168 181 184 191 204
161 165 163 165 162 167 184 184 205 197 178 182 175 183 155 140 159 168 207 180 256 153 151 128 91 6 318 326 310 221 211 106 102 112 161 201 191 177 176 178 186 192 197
169 167 165 164 168 168 185 190 193 164 164 141 157 182 174 158 156 154 175 135 75 298 145 126 101 359 341 337 291 68 93 99 108 67 5 246 200 193 176 184 193 197 202
164 166 167 170 170 175 168 171 211 222 136 139 120 159 182 169 159 156 142 192 230 159 153 84 103 317 298 331 328 291 119 123 106 170 310 123 177 207 183 183 191 201 202
156 157 168 170 174 174 169 164 193 220 239 194 149 133 148 160 158 186 168 180 200 181 100 133 183 105 296 325 309 22 63 85 46 81 89 68 39 141 166 185 196 203 209
158 160 173 159 172 172 171 157 170 209 245 205 151 166 182 190 186 203 184 192 189 133 144 138 137 324 241 264 330 356 62 104 98 85 108 64 74 96 95 125 313 197 183
162 165 169 162 163 169 171 167 177 189 200 218 194 183 185 189 195 190 197 175 185 165 180 160 124 77 308 187 81 344 348 140 122 99 104 68 65 82 92 92 85 99 105
174 174 174 176 152 172 173 174 167 169 215 195 209 181 189 190 184 176 180 186 217 156 133 134 128 62 296 124 130 100 60 358 356 111 100 92 84 81 89 108 103 120 124
178 176 180 180 172 164 162 163 157 150 326 218 203 201 182 187 187 175 174 152 157 132 155 153 166 142 122 320 105 135 64 193 118 74 126 131 123 104 109 136 132 128 142
180 178 177 178 177 173 163 172 163 171 187 222 203 192 194 183 177 180 167 168 149 138 144 164 153 145 122 177 350 49 121 150 143 22 331 156 143 171 183 130 161 158 145
178 179 176 179 179 177 179 172 177 184 202 224 203 182 172 163 169 161 166 151 157 151 165 159 150 152 146 136 182 162 136 83 107 128 205 243 272 221 249 178 177 179 177
178 176 175 173 179 176 180 178 181 192 203 216 203 165 174 172 177 168 163 161 164 155 158 163 164 168 173 148 164 102 140 155 199 130 96 20 185 204 223 226 202 197 190